Date,TemperatureHighF,TemperatureAvgF,TemperatureLowF,DewpointHighF,DewpointAvgF,DewpointLowF,HumidityHigh,HumidityAvg,HumidityLow,PressureMaxIn,PressureMinIn,WindSpeedMaxMPH,WindSpeedAvgMPH,GustSpeedMaxMPH,PrecipitationSumIn
2013-2-1,31.1,22.9,12.0,21.1,7.1,-3.0,72,50,47,30.28,29.75,31,7,31,0.02
2013-2-2,33.6,21.4,10.0,19.4,8.2,-4.9,76,57,49,30.28,29.93,17,3,17,0.02
2013-2-3,39.7,30.8,24.1,26.7,17.9,10.2,77,60,47,29.93,29.75,28,5,28,0.02
2013-2-4,38.5,29.8,19.0,23.8,13.3,3.9,66,50,47,30.02,29.84,22,4,22,0.02
2013-2-5,51.6,41.5,29.5,31.9,25.6,17.7,67,53,47,29.87,29.78,22,4,22,0.02
2013-2-6,51.6,38.6,26.2,31.0,23.5,12.9,75,55,43,30.25,29.87,13,2,13,0.00
2013-2-7,41.7,32.6,23.4,24.3,19.1,12.3,68,58,46,30.31,30.11,10,2,10,0.00
2013-2-8,46.2,35.9,31.6,30.4,23.5,15.5,82,61,45,30.11,29.75,25,5,25,0.02
2013-2-9,45.1,33.3,20.7,23.8,14.5,5.0,53,46,43,30.31,29.96,25,5,25,0.00
2013-2-10,45.9,31.1,15.4,24.5,14.6,3.8,67,51,43,30.37,30.14,15,2,15,0.01
2013-2-11,63.0,50.4,35.8,42.1,33.2,19.3,75,53,40,30.14,29.75,25,6,25,0.00
2013-2-12,62.2,48.3,38.5,37.0,26.4,18.5,44,42,39,29.93,29.81,19,5,19,0.00
2013-2-13,45.0,36.0,30.6,28.8,22.7,13.2,84,60,43,29.90,29.60,13,2,13,0.03
2013-2-14,50.0,36.6,24.8,33.1,23.7,13.2,88,62,42,29.99,29.75,11,2,11,0.00
2013-2-15,58.8,37.3,21.7,34.6,24.4,12.8,78,61,40,30.02,29.87,16,2,16,0.12
2013-2-16,36.9,32.1,24.3,28.4,18.3,6.9,84,57,46,29.96,29.81,22,4,22,0.00
2013-2-17,29.1,23.0,18.5,9.3,5.3,1.0,50,46,43,30.14,29.84,24,9,24,0.00
2013-2-18,47.5,29.5,9.5,25.5,11.4,-5.4,58,46,42,30.28,30.08,16,2,16,0.00
2013-2-19,52.2,39.8,29.1,33.4,22.8,11.9,76,51,42,30.08,29.69,26,7,26,0.02
2013-2-20,40.5,32.1,22.1,20.3,12.6,2.7,47,44,40,30.11,29.84,22,8,22,0.00
2013-2-21,42.4,29.2,14.9,20.4,9.9,-0.8,53,44,41,30.25,30.08,14,3,14,0.00
2013-2-22,36.0,31.5,27.0,19.5,15.2,8.9,64,51,43,30.28,30.11,13,3,13,0.03
2013-2-23,51.8,39.3,33.1,32.1,25.0,19.3,67,57,46,30.11,29.78,8,1,8,0.00
2013-2-24,53.2,41.0,31.8,42.2,26.7,13.9,92,59,42,30.08,29.78,20,5,20,0.00
2013-2-25,43.7,31.3,19.9,23.1,14.7,6.9,59,50,44,30.16,30.08,15,2,15,0.00
2013-2-26,38.1,31.2,21.9,36.9,24.4,9.4,97,76,58,30.14,29.60,15,3,15,0.64
2013-2-27,55.4,43.3,36.7,43.1,31.6,24.1,97,67,42,29.69,29.54,20,4,20,0.01
2013-2-28,43.3,38.2,32.2,25.3,21.0,17.6,57,50,44,29.72,29.63,18,5,18,0.00